ソーホー彗星

P/2005 W4 ( SOHO )

English version
Home page
Updated on March 27, 2011

---------------------------------------------------------------------

・ プロフィール

・ 軌道要素

Epoch 2005 Nov. 6.0 TT = JDT 2453680.5
T 2005 Nov. 23.49789 TT                                 MPC
q   0.0546022            (2000.0)            P               Q
n   0.18538218     Peri.   49.37076     -0.19638897     -0.95948710
a   3.0461929      Node    53.10781     +0.80599137     -0.27530630
e   0.9820752      Incl.   14.63204     +0.55839886     +0.05992457
P   5.32
From 199 observations 2000 July 30-2011 Mar. 10.  Nongravitational
     parameters A1 = +0.00, A2 = -0.0076.

---------------------------------------------------------------------

軌道要素はM.P.E.C. 2011-F14に掲載されたものです。

---------------------------------------------------------------------

Copyright(C) Seiichi Yoshida (comet@aerith.net). All rights reserved.